Year,Month,Day,Hour,Minute,Value (Times are PST for insolation in W/m^2)
2022,01,30,00,00,0.00
2022,01,30,00,01,0.00
2022,01,30,00,02,0.00
2022,01,30,00,03,0.00
2022,01,30,00,04,0.00
2022,01,30,00,05,0.00
2022,01,30,00,06,0.00
2022,01,30,00,07,0.00
2022,01,30,00,08,0.00
2022,01,30,00,09,0.00
2022,01,30,00,10,0.00
2022,01,30,00,11,0.00
2022,01,30,00,12,0.00
2022,01,30,00,13,0.00
2022,01,30,00,14,0.00
2022,01,30,00,15,0.00
2022,01,30,00,16,0.00
2022,01,30,00,17,0.00
2022,01,30,00,18,0.00
2022,01,30,00,19,0.00
2022,01,30,00,20,0.00
2022,01,30,00,21,0.00
2022,01,30,00,22,0.00
2022,01,30,00,23,0.00
2022,01,30,00,24,0.00
2022,01,30,00,25,0.00
2022,01,30,00,26,0.00
2022,01,30,00,27,0.00
2022,01,30,00,28,0.00
2022,01,30,00,29,0.00
2022,01,30,00,30,0.00
2022,01,30,00,31,0.00
2022,01,30,00,32,0.00
2022,01,30,00,33,0.00
2022,01,30,00,34,0.00
2022,01,30,00,35,0.00
2022,01,30,00,36,0.00
2022,01,30,00,37,0.00
2022,01,30,00,38,0.00
2022,01,30,00,39,0.00
2022,01,30,00,40,0.00
2022,01,30,00,41,0.00
2022,01,30,00,42,0.00
2022,01,30,00,43,0.00
2022,01,30,00,44,0.00
2022,01,30,00,45,0.00
2022,01,30,00,46,0.00
2022,01,30,00,47,0.00
2022,01,30,00,48,0.00
2022,01,30,00,49,0.00
2022,01,30,00,50,0.00
2022,01,30,00,51,0.00
2022,01,30,00,52,0.00
2022,01,30,00,53,0.00
2022,01,30,00,54,0.00
2022,01,30,00,55,0.00
2022,01,30,00,56,0.00
2022,01,30,00,57,0.00
2022,01,30,00,58,0.00
2022,01,30,00,59,0.00
2022,01,30,01,00,0.00
2022,01,30,01,01,0.00
2022,01,30,01,02,0.00
2022,01,30,01,03,0.00
2022,01,30,01,04,0.00
2022,01,30,01,05,0.00
2022,01,30,01,06,0.00
2022,01,30,01,07,0.00
2022,01,30,01,08,0.00
2022,01,30,01,09,0.00
2022,01,30,01,10,0.00
2022,01,30,01,11,0.00
2022,01,30,01,12,0.00
2022,01,30,01,13,0.00
2022,01,30,01,14,0.00
2022,01,30,01,15,0.00
2022,01,30,01,16,0.00
2022,01,30,01,17,0.00
2022,01,30,01,18,0.00
2022,01,30,01,19,0.00
2022,01,30,01,20,0.00
2022,01,30,01,21,0.00
2022,01,30,01,22,0.00
2022,01,30,01,23,0.00
2022,01,30,01,24,0.00
2022,01,30,01,25,0.00
2022,01,30,01,26,0.00
2022,01,30,01,27,0.00
2022,01,30,01,28,0.00
2022,01,30,01,29,0.00
2022,01,30,01,30,0.00
2022,01,30,01,31,0.00
2022,01,30,01,32,0.00
2022,01,30,01,33,0.00
2022,01,30,01,34,0.00
2022,01,30,01,35,0.00
2022,01,30,01,36,0.00
2022,01,30,01,37,0.00
2022,01,30,01,38,0.00
2022,01,30,01,39,0.00
2022,01,30,01,40,0.00
2022,01,30,01,41,0.00
2022,01,30,01,42,0.00
2022,01,30,01,43,0.00
2022,01,30,01,44,0.00
2022,01,30,01,45,0.00
2022,01,30,01,46,0.00
2022,01,30,01,47,0.00
2022,01,30,01,48,0.00
2022,01,30,01,49,0.00
2022,01,30,01,50,0.00
2022,01,30,01,51,0.00
2022,01,30,01,52,0.00
2022,01,30,01,53,0.00
2022,01,30,01,54,0.00
2022,01,30,01,55,0.00
2022,01,30,01,56,0.00
2022,01,30,01,57,0.00
2022,01,30,01,58,0.00
2022,01,30,01,59,0.00
2022,01,30,02,00,0.00
2022,01,30,02,01,0.00
2022,01,30,02,02,0.00
2022,01,30,02,03,0.00
2022,01,30,02,04,0.00
2022,01,30,02,05,0.00
2022,01,30,02,06,0.00
2022,01,30,02,07,0.00
2022,01,30,02,08,0.00
2022,01,30,02,09,0.00
2022,01,30,02,10,0.00
2022,01,30,02,11,0.00
2022,01,30,02,12,0.00
2022,01,30,02,13,0.00
2022,01,30,02,14,0.00
2022,01,30,02,15,0.00
2022,01,30,02,16,0.00
2022,01,30,02,17,0.00
2022,01,30,02,18,0.00
2022,01,30,02,19,0.00
2022,01,30,02,20,0.00
2022,01,30,02,21,0.00
2022,01,30,02,22,0.00
2022,01,30,02,23,0.00
2022,01,30,02,24,0.00
2022,01,30,02,25,0.00
2022,01,30,02,26,0.00
2022,01,30,02,27,0.00
2022,01,30,02,28,0.00
2022,01,30,02,29,0.00
2022,01,30,02,30,0.00
2022,01,30,02,31,0.00
2022,01,30,02,32,0.00
2022,01,30,02,33,0.00
2022,01,30,02,34,0.00
2022,01,30,02,35,0.00
2022,01,30,02,36,0.00
2022,01,30,02,37,0.00
2022,01,30,02,38,0.00
2022,01,30,02,39,0.00
2022,01,30,02,40,0.00
2022,01,30,02,41,0.00
2022,01,30,02,42,0.00
2022,01,30,02,43,0.00
2022,01,30,02,44,0.00
2022,01,30,02,45,0.00
2022,01,30,02,46,0.00
2022,01,30,02,47,0.00
2022,01,30,02,48,0.00
2022,01,30,02,49,0.00
2022,01,30,02,50,0.00
2022,01,30,02,51,0.00
2022,01,30,02,52,0.00
2022,01,30,02,53,0.00
2022,01,30,02,54,0.00
2022,01,30,02,55,0.00
2022,01,30,02,56,0.00
2022,01,30,02,57,0.00
2022,01,30,02,58,0.00
2022,01,30,02,59,0.00
2022,01,30,03,00,0.00
2022,01,30,03,01,0.00
2022,01,30,03,02,0.00
2022,01,30,03,06,0.00
2022,01,30,03,07,0.00
2022,01,30,03,08,0.00
2022,01,30,03,09,0.00
2022,01,30,03,10,0.00
2022,01,30,03,11,0.00
2022,01,30,03,12,0.00
2022,01,30,03,13,0.00
2022,01,30,03,14,0.00
2022,01,30,03,15,0.00
2022,01,30,03,16,0.00
2022,01,30,03,17,0.00
2022,01,30,03,18,0.00
2022,01,30,03,19,0.00
2022,01,30,03,20,0.00
2022,01,30,03,21,0.00
2022,01,30,03,22,0.00
2022,01,30,03,23,0.00
2022,01,30,03,24,0.00
2022,01,30,03,25,0.00
2022,01,30,03,26,0.00
2022,01,30,03,27,0.00
2022,01,30,03,28,0.00
2022,01,30,03,29,0.00
2022,01,30,03,30,0.00
2022,01,30,03,31,0.00
2022,01,30,03,32,0.00
2022,01,30,03,33,0.00
2022,01,30,03,34,0.00
2022,01,30,03,35,0.00
2022,01,30,03,36,0.00
2022,01,30,03,37,0.00
2022,01,30,03,38,0.00
2022,01,30,03,39,0.00
2022,01,30,03,40,0.00
2022,01,30,03,41,0.00
2022,01,30,03,42,0.00
2022,01,30,03,43,0.00
2022,01,30,03,44,0.00
2022,01,30,03,45,0.00
2022,01,30,03,46,0.00
2022,01,30,03,47,0.00
2022,01,30,03,48,0.00
2022,01,30,03,49,0.00
2022,01,30,03,50,0.00
2022,01,30,03,51,0.00
2022,01,30,03,52,0.00
2022,01,30,03,53,0.00
2022,01,30,03,54,0.00
2022,01,30,03,55,0.00
2022,01,30,03,56,0.00
2022,01,30,03,57,0.00
2022,01,30,03,58,0.00
2022,01,30,03,59,0.00
2022,01,30,04,00,0.00
2022,01,30,04,01,0.00
2022,01,30,04,02,0.00
2022,01,30,04,03,0.00
2022,01,30,04,04,0.00
2022,01,30,04,05,0.00
2022,01,30,04,06,0.00
2022,01,30,04,07,0.00
2022,01,30,04,08,0.00
2022,01,30,04,09,0.00
2022,01,30,04,10,0.00
2022,01,30,04,11,0.00
2022,01,30,04,12,0.00
2022,01,30,04,13,0.00
2022,01,30,04,14,0.00
2022,01,30,04,15,0.00
2022,01,30,04,16,0.00
2022,01,30,04,17,0.00
2022,01,30,04,18,0.00
2022,01,30,04,19,0.00
2022,01,30,04,20,0.00
2022,01,30,04,21,0.00
2022,01,30,04,22,0.00
2022,01,30,04,23,0.00
2022,01,30,04,24,0.00
2022,01,30,04,25,0.00
2022,01,30,04,26,0.00
2022,01,30,04,27,0.00
2022,01,30,04,28,0.00
2022,01,30,04,29,0.00
2022,01,30,04,30,0.00
2022,01,30,04,31,0.00
2022,01,30,04,32,0.00
2022,01,30,04,33,0.00
2022,01,30,04,34,0.00
2022,01,30,04,35,0.00
2022,01,30,04,36,0.00
2022,01,30,04,37,0.00
2022,01,30,04,38,0.00
2022,01,30,04,39,0.00
2022,01,30,04,40,0.00
2022,01,30,04,41,0.00
2022,01,30,04,42,0.00
2022,01,30,04,43,0.00
2022,01,30,04,44,0.00
2022,01,30,04,45,0.00
2022,01,30,04,46,0.00
2022,01,30,04,47,0.00
2022,01,30,04,48,0.00
2022,01,30,04,49,0.00
2022,01,30,04,50,0.00
2022,01,30,04,51,0.00
2022,01,30,04,52,0.00
2022,01,30,04,53,0.00
2022,01,30,04,54,0.00
2022,01,30,04,55,0.00
2022,01,30,04,56,0.00
2022,01,30,04,57,0.00
2022,01,30,04,58,0.00
2022,01,30,04,59,0.00
2022,01,30,05,00,0.00
2022,01,30,05,01,0.00
2022,01,30,05,02,0.00
2022,01,30,05,03,0.00
2022,01,30,05,04,0.00
2022,01,30,05,05,0.00
2022,01,30,05,06,0.00
2022,01,30,05,07,0.00
2022,01,30,05,08,0.00
2022,01,30,05,09,0.00
2022,01,30,05,10,0.00
2022,01,30,05,11,0.00
2022,01,30,05,12,0.00
2022,01,30,05,13,0.00
2022,01,30,05,14,0.00
2022,01,30,05,15,0.00
2022,01,30,05,16,0.00
2022,01,30,05,17,0.00
2022,01,30,05,18,0.00
2022,01,30,05,19,0.00
2022,01,30,05,20,0.00
2022,01,30,05,21,0.00
2022,01,30,05,22,0.00
2022,01,30,05,23,0.00
2022,01,30,05,24,0.00
2022,01,30,05,25,0.00
2022,01,30,05,26,0.00
2022,01,30,05,27,0.00
2022,01,30,05,28,0.00
2022,01,30,05,29,0.00
2022,01,30,05,30,0.00
2022,01,30,05,31,0.00
2022,01,30,05,32,0.00
2022,01,30,05,33,0.00
2022,01,30,05,34,0.00
2022,01,30,08,57,33.00
2022,01,30,08,58,34.40
2022,01,30,08,59,38.40
2022,01,30,09,00,40.30
2022,01,30,09,01,42.00
2022,01,30,09,02,42.00
2022,01,30,09,03,42.00
2022,01,30,09,04,43.40
2022,01,30,09,05,45.80
2022,01,30,09,06,47.60
2022,01,30,09,07,51.80
2022,01,30,09,08,55.80
2022,01,30,09,09,60.40
2022,01,30,09,10,62.70
2022,01,30,09,11,64.70
2022,01,30,09,12,67.40
2022,01,30,09,13,69.30
2022,01,30,09,14,70.00
2022,01,30,09,15,71.20
2022,01,30,09,16,73.50
2022,01,30,09,17,75.80
2022,01,30,09,18,77.80
2022,01,30,09,19,81.60
2022,01,30,09,20,83.50
2022,01,30,09,21,85.30
2022,01,30,09,22,87.50
2022,01,30,09,23,88.00
2022,01,30,09,24,88.00
2022,01,30,09,25,87.30
2022,01,30,09,26,84.90
2022,01,30,09,27,83.30
2022,01,30,09,28,81.40
2022,01,30,09,29,78.90
2022,01,30,09,30,75.00
2022,01,30,09,31,70.90
2022,01,30,09,32,67.00
2022,01,30,09,33,63.70
2022,01,30,09,34,62.20
2022,01,30,09,35,58.00
2022,01,30,09,36,56.00
2022,01,30,09,37,56.00
2022,01,30,09,38,54.40
2022,01,30,09,39,51.70
2022,01,30,09,40,51.00
2022,01,30,09,41,54.90
2022,01,30,09,42,61.80
2022,01,30,09,43,70.60
2022,01,30,09,44,80.40
2022,01,30,09,45,86.80
2022,01,30,09,46,89.80
2022,01,30,09,47,90.80
2022,01,30,09,48,89.40
2022,01,30,09,49,85.80
2022,01,30,09,50,78.80
2022,01,30,09,51,70.80
2022,01,30,09,52,62.40
2022,01,30,09,53,55.00
2022,01,30,09,54,50.30
2022,01,30,09,55,47.60
2022,01,30,09,56,44.80
2022,01,30,09,57,42.50
2022,01,30,09,58,42.00
2022,01,30,09,59,42.00
2022,01,30,10,00,42.00
2022,01,30,10,01,41.00
2022,01,30,10,02,40.00
2022,01,30,10,03,40.00
2022,01,30,10,04,37.20
2022,01,30,10,05,34.60
2022,01,30,10,06,33.70
2022,01,30,10,07,37.40
2022,01,30,10,08,42.60
2022,01,30,10,09,46.40
2022,01,30,10,10,50.80
2022,01,30,10,11,51.00
2022,01,30,10,12,51.80
2022,01,30,10,13,54.70
2022,01,30,10,14,58.70
2022,01,30,10,15,61.60
2022,01,30,10,16,61.80
2022,01,30,10,17,60.00
2022,01,30,10,18,60.00
2022,01,30,10,19,60.00
2022,01,30,10,20,58.70
2022,01,30,10,21,59.60
2022,01,30,10,22,62.80
2022,01,30,10,23,72.80
2022,01,30,10,24,84.60
2022,01,30,10,25,91.70
2022,01,30,10,26,94.40
2022,01,30,10,27,95.00
2022,01,30,10,28,89.80
2022,01,30,10,29,86.00
2022,01,30,10,30,86.90
2022,01,30,10,31,90.90
2022,01,30,10,32,97.90
2022,01,30,10,33,105.90
2022,01,30,10,34,107.00
2022,01,30,10,35,107.00
2022,01,30,10,36,109.70
2022,01,30,10,37,119.00
2022,01,30,10,38,133.50
2022,01,30,10,39,145.10
2022,01,30,10,40,151.80
2022,01,30,10,41,156.70
2022,01,30,10,42,158.00
2022,01,30,10,43,159.30
2022,01,30,10,44,163.80
2022,01,30,10,45,173.50
2022,01,30,10,46,183.40
2022,01,30,10,47,185.90
2022,01,30,10,48,189.80
2022,01,30,10,49,195.00
2022,01,30,10,50,202.60
2022,01,30,10,51,211.70
2022,01,30,10,52,229.00
2022,01,30,10,53,242.10
2022,01,30,10,54,231.40
2022,01,30,10,55,233.30
2022,01,30,10,56,263.40
2022,01,30,10,57,240.10
2022,01,30,10,58,187.50
2022,01,30,10,59,165.10
2022,01,30,11,00,148.00
2022,01,30,11,01,132.10
2022,01,30,11,02,121.50
2022,01,30,11,03,113.50
2022,01,30,11,04,108.00
2022,01,30,11,05,103.00
2022,01,30,11,06,98.30
2022,01,30,11,07,94.20
2022,01,30,11,08,90.50
2022,01,30,11,09,83.30
2022,01,30,11,10,74.90
2022,01,30,11,11,67.40
2022,01,30,11,12,65.00
2022,01,30,11,13,67.80
2022,01,30,11,14,71.60
2022,01,30,11,15,74.40
2022,01,30,11,16,75.40
2022,01,30,11,17,74.00
2022,01,30,11,18,72.80
2022,01,30,11,19,72.00
2022,01,30,11,20,70.30
2022,01,30,11,21,68.10
2022,01,30,11,22,61.20
2022,01,30,11,23,55.60
2022,01,30,11,24,49.40
2022,01,30,11,25,44.80
2022,01,30,11,26,44.10
2022,01,30,11,27,46.20
2022,01,30,11,28,47.00
2022,01,30,11,29,49.00
2022,01,30,11,30,52.90
2022,01,30,11,31,60.00
2022,01,30,11,32,68.60
2022,01,30,11,33,75.10
2022,01,30,11,34,79.70
2022,01,30,11,35,81.00
2022,01,30,11,36,81.00
2022,01,30,11,37,82.60
2022,01,30,11,38,85.80
2022,01,30,11,39,86.00
2022,01,30,11,40,86.00
2022,01,30,11,41,86.00
2022,01,30,11,42,84.60
2022,01,30,11,43,84.00
2022,01,30,11,44,84.30
2022,01,30,11,45,86.00
2022,01,30,11,46,85.20
2022,01,30,11,47,85.10
2022,01,30,11,48,90.80
2022,01,30,11,49,98.90
2022,01,30,11,50,101.20
2022,01,30,11,51,94.90
2022,01,30,11,52,88.30
2022,01,30,11,53,87.10
2022,01,30,11,54,88.00
2022,01,30,11,55,88.00
2022,01,30,11,56,91.10
2022,01,30,11,57,99.10
2022,01,30,11,58,104.40
2022,01,30,11,59,105.00
2022,01,30,12,00,105.00
2022,01,30,12,01,102.30
2022,01,30,12,02,94.20
2022,01,30,12,03,90.10
2022,01,30,12,04,86.20
2022,01,30,12,05,83.40
2022,01,30,12,06,83.00
2022,01,30,12,07,85.70
2022,01,30,12,08,86.00
2022,01,30,12,09,87.20
2022,01,30,12,10,91.30
2022,01,30,12,11,94.30
2022,01,30,12,12,96.50
2022,01,30,12,13,97.70
2022,01,30,12,14,105.90
2022,01,30,12,15,115.40
2022,01,30,12,16,120.50
2022,01,30,12,17,119.10
2022,01,30,12,18,114.80
2022,01,30,12,19,112.70
2022,01,30,12,20,108.60
2022,01,30,12,21,106.30
2022,01,30,12,22,102.50
2022,01,30,12,23,95.20
2022,01,30,12,24,90.60
2022,01,30,12,25,90.10
2022,01,30,12,26,91.00
2022,01,30,12,27,89.70
2022,01,30,12,28,88.00
2022,01,30,12,29,88.00
2022,01,30,12,30,89.60
2022,01,30,12,31,86.90
2022,01,30,12,32,79.80
2022,01,30,12,33,74.30
2022,01,30,12,34,70.90
2022,01,30,12,35,70.00
2022,01,30,12,36,73.40
2022,01,30,12,37,74.30
2022,01,30,12,38,76.80
2022,01,30,12,39,74.40
2022,01,30,12,40,70.30
2022,01,30,12,41,67.60
2022,01,30,12,42,67.00
2022,01,30,12,43,70.30
2022,01,30,12,44,72.00
2022,01,30,12,45,71.10
2022,01,30,12,46,67.00
2022,01,30,12,47,61.20
2022,01,30,12,48,56.30
2022,01,30,12,49,54.30
2022,01,30,12,50,56.00
2022,01,30,12,51,57.00
2022,01,30,12,52,59.30
2022,01,30,12,53,62.20
2022,01,30,12,54,66.70
2022,01,30,12,55,70.40
2022,01,30,12,56,72.70
2022,01,30,12,57,75.00
2022,01,30,12,58,78.10
2022,01,30,12,59,83.00
2022,01,30,13,00,91.20
2022,01,30,13,01,97.60
2022,01,30,13,02,100.70
2022,01,30,13,03,103.00
2022,01,30,13,04,105.90
2022,01,30,13,05,110.20
2022,01,30,13,06,114.10
2022,01,30,13,07,116.00
2022,01,30,13,08,116.80
2022,01,30,13,09,119.60
2022,01,30,13,10,122.30
2022,01,30,13,11,124.60
2022,01,30,13,12,130.80
2022,01,30,13,13,136.10
2022,01,30,13,14,138.20
2022,01,30,13,15,135.40
2022,01,30,13,16,132.60
2022,01,30,13,17,134.60
2022,01,30,13,18,136.80
2022,01,30,13,19,133.50
2022,01,30,13,20,128.60
2022,01,30,13,21,125.80
2022,01,30,13,22,126.50
2022,01,30,13,23,131.20
2022,01,30,13,24,135.60
2022,01,30,13,25,139.00
2022,01,30,13,26,137.20
2022,01,30,13,27,130.80
2022,01,30,13,28,122.10
2022,01,30,13,29,107.80
2022,01,30,13,30,95.20
2022,01,30,13,31,86.70
2022,01,30,13,32,84.90
2022,01,30,13,33,88.40
2022,01,30,13,34,92.20
2022,01,30,13,35,96.50
2022,01,30,13,36,94.20
2022,01,30,13,37,89.20
2022,01,30,13,38,83.50
2022,01,30,13,39,79.70
2022,01,30,13,40,79.00
2022,01,30,13,41,81.00
2022,01,30,13,42,83.20
2022,01,30,13,43,84.70
2022,01,30,13,44,86.00
2022,01,30,13,45,84.70
2022,01,30,13,46,80.10
2022,01,30,13,47,73.80
2022,01,30,13,48,67.20
2022,01,30,13,49,58.80
2022,01,30,13,50,53.50
2022,01,30,13,51,51.60
2022,01,30,13,52,52.70
2022,01,30,13,53,54.20
2022,01,30,13,54,56.50
2022,01,30,13,55,57.20
2022,01,30,13,56,54.30
2022,01,30,13,57,51.60
2022,01,30,13,58,47.60
2022,01,30,13,59,43.70
2022,01,30,14,00,42.00
2022,01,30,14,01,42.90
2022,01,30,14,02,45.70
2022,01,30,14,03,47.00
2022,01,30,14,04,47.00
2022,01,30,14,05,47.00
2022,01,30,14,06,47.00
2022,01,30,14,07,47.00
2022,01,30,14,08,48.20
2022,01,30,14,09,51.90
2022,01,30,14,10,55.70
2022,01,30,14,11,58.40
2022,01,30,14,12,60.00
2022,01,30,14,13,60.00
2022,01,30,14,14,60.00
2022,01,30,14,15,61.50
2022,01,30,14,16,64.80
2022,01,30,14,17,67.40
2022,01,30,14,18,67.60
2022,01,30,14,19,61.70
2022,01,30,14,20,52.20
2022,01,30,14,21,45.10
2022,01,30,14,22,44.20
2022,01,30,14,23,46.60
2022,01,30,14,24,49.00
2022,01,30,14,25,49.00
2022,01,30,14,26,49.00
2022,01,30,14,27,47.40
2022,01,30,14,28,44.10
2022,01,30,14,29,42.00
2022,01,30,14,30,42.00
2022,01,30,14,31,42.00
2022,01,30,14,32,40.60
2022,01,30,14,33,40.00
2022,01,30,14,34,40.20
2022,01,30,14,35,42.50
2022,01,30,14,36,43.20
2022,01,30,14,37,40.90
2022,01,30,14,38,39.30
2022,01,30,14,39,35.60
2022,01,30,14,40,33.00
2022,01,30,14,41,33.00
2022,01,30,14,42,33.00
2022,01,30,14,43,31.40
2022,01,30,14,44,27.20
2022,01,30,14,45,21.50
2022,01,30,14,46,19.00
2022,01,30,14,47,19.50
2022,01,30,14,48,21.90
2022,01,30,14,49,23.00
2022,01,30,14,50,23.00
2022,01,30,14,51,23.00
2022,01,30,14,52,23.40
2022,01,30,14,53,25.30
2022,01,30,14,54,26.90
2022,01,30,14,55,29.20
2022,01,30,14,56,28.50
2022,01,30,14,57,26.20
2022,01,30,14,58,25.00
2022,01,30,14,59,25.00
2022,01,30,15,00,26.50
2022,01,30,15,01,29.30
2022,01,30,15,02,31.60
2022,01,30,15,03,33.00
2022,01,30,15,04,32.20
2022,01,30,15,05,29.30
2022,01,30,15,06,27.00
2022,01,30,15,07,26.00
2022,01,30,15,08,26.00
2022,01,30,15,09,26.00
2022,01,30,15,10,25.80
2022,01,30,15,11,23.60
2022,01,30,15,12,19.50
2022,01,30,15,13,13.40
2022,01,30,15,14,7.80
2022,01,30,15,15,12.70
2022,01,30,15,16,18.80
2022,01,30,15,17,13.60
2022,01,30,15,18,10.90
2022,01,30,15,19,20.20
2022,01,30,15,20,30.20
2022,01,30,15,21,33.00
2022,01,30,15,22,32.10
2022,01,30,15,23,29.10
2022,01,30,15,24,28.00
2022,01,30,15,25,28.00
2022,01,30,15,26,28.00
2022,01,30,15,27,27.50
2022,01,30,15,28,23.80
2022,01,30,15,29,21.00
2022,01,30,15,30,21.00
2022,01,30,15,31,21.00
2022,01,30,15,32,19.20
2022,01,30,15,33,18.90
2022,01,30,15,34,18.00
2022,01,30,15,35,18.00
2022,01,30,15,36,18.00
2022,01,30,15,37,16.50
2022,01,30,15,38,16.00
2022,01,30,15,39,15.60
2022,01,30,15,40,14.00
2022,01,30,15,41,13.10
2022,01,30,15,42,12.00
2022,01,30,15,43,12.00
2022,01,30,15,44,12.10
2022,01,30,15,45,14.00
2022,01,30,15,46,14.00
2022,01,30,15,47,14.00
2022,01,30,15,48,15.30
2022,01,30,15,49,16.00
2022,01,30,15,50,14.20
2022,01,30,15,51,13.60
2022,01,30,15,52,12.70
2022,01,30,15,53,14.00
2022,01,30,15,54,15.30
2022,01,30,15,55,14.40
2022,01,30,15,56,14.00
2022,01,30,15,57,14.00
2022,01,30,15,58,14.00
2022,01,30,15,59,12.90
2022,01,30,16,00,12.00
2022,01,30,16,01,12.00
2022,01,30,16,02,12.00
2022,01,30,16,03,12.00
2022,01,30,16,04,12.00
2022,01,30,16,05,11.40
2022,01,30,16,06,11.00
2022,01,30,16,07,11.00
2022,01,30,16,08,11.00
2022,01,30,16,09,11.00
2022,01,30,16,10,10.20
2022,01,30,16,11,9.00
2022,01,30,16,12,9.00
2022,01,30,16,13,9.00
2022,01,30,16,14,9.00
2022,01,30,16,15,9.00
2022,01,30,16,16,9.90
2022,01,30,16,17,11.60
2022,01,30,16,18,13.50
2022,01,30,16,19,17.60
2022,01,30,16,20,24.00
2022,01,30,16,21,32.70
2022,01,30,16,22,47.50
2022,01,30,16,23,62.90
2022,01,30,16,24,73.80
2022,01,30,16,25,76.80
2022,01,30,16,26,71.60
2022,01,30,16,27,60.10
2022,01,30,16,28,55.10
2022,01,30,16,29,53.40
2022,01,30,16,30,51.40
2022,01,30,16,31,47.10
2022,01,30,16,32,43.20
2022,01,30,16,33,39.00
2022,01,30,16,34,35.90
2022,01,30,16,35,31.80
2022,01,30,16,36,31.60
2022,01,30,16,37,34.80
2022,01,30,16,38,35.00
2022,01,30,16,39,33.90
2022,01,30,16,40,31.00
2022,01,30,16,41,27.40
2022,01,30,16,42,30.80
2022,01,30,16,43,39.00
2022,01,30,16,44,39.60
2022,01,30,16,45,31.00
2022,01,30,16,46,26.40
2022,01,30,16,47,23.60
2022,01,30,16,48,19.60
2022,01,30,16,49,18.50
2022,01,30,16,50,21.00
2022,01,30,16,51,21.00
2022,01,30,16,52,22.20
2022,01,30,16,53,24.50
2022,01,30,16,54,23.20
2022,01,30,16,55,20.50
2022,01,30,16,56,17.00
2022,01,30,16,57,12.80
2022,01,30,16,58,11.00
2022,01,30,16,59,9.50
2022,01,30,17,00,9.00
2022,01,30,17,01,8.60
2022,01,30,17,02,7.00
2022,01,30,17,03,7.00
2022,01,30,17,04,5.80
2022,01,30,17,05,5.00
2022,01,30,17,06,5.00
2022,01,30,17,07,5.00
2022,01,30,17,08,5.00
2022,01,30,17,09,2.50
2022,01,30,17,10,0.00
2022,01,30,17,11,0.00
2022,01,30,17,12,0.00
2022,01,30,17,13,0.00
2022,01,30,17,14,0.00
2022,01,30,17,15,0.00
2022,01,30,17,16,0.00
2022,01,30,17,17,0.00
2022,01,30,17,18,0.00
2022,01,30,17,19,0.00
2022,01,30,17,20,0.00
2022,01,30,17,21,0.00
2022,01,30,17,22,0.00
2022,01,30,17,23,0.00
2022,01,30,17,24,0.00
2022,01,30,17,25,0.00
2022,01,30,17,26,0.00
2022,01,30,17,27,0.00
2022,01,30,17,28,0.00
2022,01,30,17,29,0.00
2022,01,30,17,30,0.00
2022,01,30,17,31,0.00
2022,01,30,17,32,0.00
2022,01,30,17,33,0.00
2022,01,30,17,34,0.00
2022,01,30,17,35,0.00
2022,01,30,17,36,0.00
2022,01,30,17,37,0.00
2022,01,30,17,38,0.00
2022,01,30,17,39,0.00
2022,01,30,17,40,0.00
2022,01,30,17,41,0.00
2022,01,30,17,42,0.00
2022,01,30,17,43,0.00
2022,01,30,17,44,0.00
2022,01,30,17,45,0.00
2022,01,30,17,46,0.00
2022,01,30,17,47,0.00
2022,01,30,17,48,0.00
2022,01,30,17,49,0.00
2022,01,30,17,50,0.00
2022,01,30,17,51,0.00
2022,01,30,17,52,0.00
2022,01,30,17,53,0.00
2022,01,30,17,54,0.00
2022,01,30,17,55,0.00
2022,01,30,17,56,0.00
2022,01,30,17,57,0.00
2022,01,30,17,58,0.00
2022,01,30,17,59,0.00
2022,01,30,18,00,0.00
2022,01,30,18,01,0.00
2022,01,30,18,02,0.00
2022,01,30,18,03,0.00
2022,01,30,18,04,0.00
2022,01,30,18,05,0.00
2022,01,30,18,06,0.00
2022,01,30,18,07,0.00
2022,01,30,18,08,0.00
2022,01,30,18,09,0.00
2022,01,30,18,10,0.00
2022,01,30,18,11,0.00
2022,01,30,18,12,0.00
2022,01,30,18,13,0.00
2022,01,30,18,14,0.00
2022,01,30,18,15,0.00
2022,01,30,18,16,0.00
2022,01,30,18,17,0.00
2022,01,30,18,18,0.00
2022,01,30,18,19,0.00
2022,01,30,18,20,0.00
2022,01,30,18,21,0.00
2022,01,30,18,22,0.00
2022,01,30,18,23,0.00
2022,01,30,18,24,0.00
2022,01,30,18,25,0.00
2022,01,30,18,26,0.00
2022,01,30,18,27,0.00
2022,01,30,18,28,0.00
2022,01,30,18,29,0.00
2022,01,30,18,30,0.00
2022,01,30,18,31,0.00
2022,01,30,18,32,0.00
2022,01,30,18,33,0.00
2022,01,30,18,34,0.00
2022,01,30,18,35,0.00
2022,01,30,18,36,0.00
2022,01,30,18,37,0.00
2022,01,30,18,38,0.00
2022,01,30,18,39,0.00
2022,01,30,18,40,0.00
2022,01,30,18,41,0.00
2022,01,30,18,42,0.00
2022,01,30,18,43,0.00
2022,01,30,18,44,0.00
2022,01,30,18,45,0.00
2022,01,30,18,46,0.00
2022,01,30,18,47,0.00
2022,01,30,18,48,0.00
2022,01,30,18,49,0.00
2022,01,30,18,50,0.00
2022,01,30,18,51,0.00
2022,01,30,18,52,0.00
2022,01,30,18,53,0.00
2022,01,30,18,54,0.00
2022,01,30,18,55,0.00
2022,01,30,18,56,0.00
2022,01,30,18,57,0.00
2022,01,30,18,58,0.00
2022,01,30,18,59,0.00
2022,01,30,19,00,0.00
2022,01,30,19,01,0.00
2022,01,30,19,02,0.00
2022,01,30,19,03,0.00
2022,01,30,19,04,0.00
2022,01,30,19,05,0.00
2022,01,30,19,06,0.00
2022,01,30,19,07,0.00
2022,01,30,19,08,0.00
2022,01,30,19,09,0.00
2022,01,30,19,10,0.00
2022,01,30,19,11,0.00
2022,01,30,19,12,0.00
2022,01,30,19,13,0.00
2022,01,30,19,14,0.00
2022,01,30,19,15,0.00
2022,01,30,19,16,0.00
2022,01,30,19,17,0.00
2022,01,30,19,18,0.00
2022,01,30,19,19,0.00
2022,01,30,19,20,0.00
2022,01,30,19,21,0.00
2022,01,30,19,22,0.00
2022,01,30,19,23,0.00
2022,01,30,19,24,0.00
2022,01,30,19,25,0.00
2022,01,30,19,26,0.00
2022,01,30,19,27,0.00
2022,01,30,19,28,0.00
2022,01,30,19,29,0.00
2022,01,30,19,30,0.00
2022,01,30,19,31,0.00
2022,01,30,19,32,0.00
2022,01,30,19,33,0.00
2022,01,30,19,34,0.00
2022,01,30,19,35,0.00
2022,01,30,19,36,0.00
2022,01,30,19,37,0.00
2022,01,30,19,38,0.00
2022,01,30,19,39,0.00
2022,01,30,19,40,0.00
2022,01,30,19,41,0.00
2022,01,30,19,42,0.00
2022,01,30,19,43,0.00
2022,01,30,19,44,0.00
2022,01,30,19,45,0.00
2022,01,30,19,46,0.00
2022,01,30,19,47,0.00
2022,01,30,19,48,0.00
2022,01,30,19,49,0.00
2022,01,30,19,50,0.00
2022,01,30,19,51,0.00
2022,01,30,19,52,0.00
2022,01,30,19,53,0.00
2022,01,30,19,54,0.00
2022,01,30,19,55,0.00
2022,01,30,19,56,0.00
2022,01,30,19,57,0.00
2022,01,30,19,58,0.00
2022,01,30,19,59,0.00
2022,01,30,20,00,0.00
2022,01,30,20,01,0.00
2022,01,30,20,02,0.00
2022,01,30,20,03,0.00
2022,01,30,20,04,0.00
2022,01,30,20,05,0.00
2022,01,30,20,06,0.00
2022,01,30,20,07,0.00
2022,01,30,20,08,0.00
2022,01,30,20,09,0.00
2022,01,30,20,10,0.00
2022,01,30,20,11,0.00
2022,01,30,20,12,0.00
2022,01,30,20,13,0.00
2022,01,30,20,14,0.00
2022,01,30,20,15,0.00
2022,01,30,20,16,0.00
2022,01,30,20,17,0.00
2022,01,30,20,18,0.00
2022,01,30,20,19,0.00
2022,01,30,20,20,0.00
2022,01,30,20,21,0.00
2022,01,30,20,22,0.00
2022,01,30,20,23,0.00
2022,01,30,20,24,0.00
2022,01,30,20,25,0.00
2022,01,30,20,26,0.00
2022,01,30,20,27,0.00
2022,01,30,20,28,0.00
2022,01,30,20,29,0.00
2022,01,30,20,30,0.00
2022,01,30,20,31,0.00
2022,01,30,20,32,0.00
2022,01,30,20,33,0.00
2022,01,30,20,34,0.00
2022,01,30,20,35,0.00
2022,01,30,20,36,0.00
2022,01,30,20,37,0.00
2022,01,30,20,38,0.00
2022,01,30,20,39,0.00
2022,01,30,20,40,0.00
2022,01,30,20,41,0.00
2022,01,30,20,42,0.00
2022,01,30,20,43,0.00
2022,01,30,20,44,0.00
2022,01,30,20,45,0.00
2022,01,30,20,46,0.00
2022,01,30,20,47,0.00
2022,01,30,20,48,0.00
2022,01,30,20,49,0.00
2022,01,30,20,50,0.00
2022,01,30,20,51,0.00
2022,01,30,20,52,0.00
2022,01,30,20,53,0.00
2022,01,30,20,54,0.00
2022,01,30,20,55,0.00
2022,01,30,20,56,0.00
2022,01,30,20,57,0.00
2022,01,30,20,58,0.00
2022,01,30,20,59,0.00
2022,01,30,21,00,0.00
2022,01,30,21,01,0.00
2022,01,30,21,02,0.00
2022,01,30,21,03,0.00
2022,01,30,21,04,0.00
2022,01,30,21,05,0.00
2022,01,30,21,06,0.00